Weather History for Worcester, MA

Change the Weather History Date:

Thursday, April 4, 2013

  Actual Average Record
Temperature  
Mean Temperature 38 °F 42 °F  
Max Temperature 51 °F 50 °F 75 °F (1950)
Min Temperature 25 °F 33 °F 13 °F (1954)
Degree Days  
Heating Degree Days 27 23  
Month to date heating degree days 115 96  
Since 1 July heating degree days 5516 5872  
Cooling Degree Days 0 0  
Month to date cooling degree days 0 0  
Year to date cooling degree days 0 0  
Moisture  
Dew Point 14 °F    
Average Humidity 43    
Maximum Humidity 64    
Minimum Humidity 21    
Precipitation  
Precipitation 0.00 in 0.15 in 2.60 in (1987)
Month to date precipitation 0.30 0.58  
Year to date precipitation 10.86 11.51  
Snow  
Snow 0.00 in 0.20 in 2.10 in (1911)
Month to date snowfall 0.0 0.7  
Since 1 July snowfall 108.9 62.0  
Snow Depth 0.00 in    
Sea Level Pressure  
Sea Level Pressure 30.18 in    
Wind  
Wind Speed 13 mph (West)    
Max Wind Speed 23 mph    
Max Gust Speed 31 mph    
Visibility 10 miles    
Events      
T = Trace of Precipitation, MM = Missing Value Source: NWS Daily Summary

Daily Weather History Graph

Daily Weather History Graph

Search for Another Location

Airport:

Trip Planner

Search our weather history database for the weather conditions in past years. The results will help you decide how hot, cold, wet, or windy it might be!

Date:

Astronomy

Apr. 04, 2013 Rise Set
Actual Time 6:24 AM EDT 7:16 PM EDT
Civil Twilight 5:56 AM EDT 7:45 PM EDT
Nautical Twilight 5:22 AM EDT 8:19 PM EDT
Astronomical Twilight 4:47 AM EDT 8:54 PM EDT
Moon 2:55 AM EDT (4/4) 1:25 PM EDT (4/4)
Length of Visible Light 13h 49m
Length of Day
12h 52m
Waning Crescent, 34% of the Moon is Illuminated
Apr 4
Waning Crescent
Apr 10
New
Apr 18
First Quarter
Apr 25
Full
May 2
Last Quarter

Hourly Weather History & Observations

Time (EDT) Temp. Windchill Dew Point Humidity Pressure Visibility Wind Dir Wind Speed Gust Speed Precip Events Conditions
12:54 AM 28.0 °F 15.3 °F 12.0 °F 51% 30.19 in 10.0 mi West 18.4 mph 28.8 mph N/A   Clear
1:54 AM 28.0 °F 16.1 °F 12.9 °F 53% 30.19 in 10.0 mi WNW 16.1 mph 23.0 mph N/A   Clear
2:54 AM 27.0 °F 16.7 °F 14.0 °F 58% 30.19 in 10.0 mi WNW 11.5 mph 24.2 mph N/A   Clear
3:54 AM 27.0 °F 17.3 °F 14.0 °F 58% 30.19 in 10.0 mi WNW 10.4 mph - N/A   Clear
4:54 AM 26.1 °F 16.2 °F 14.0 °F 60% 30.21 in 10.0 mi NW 10.4 mph 19.6 mph N/A   Clear
5:54 AM 26.1 °F 19.4 °F 14.0 °F 60% 30.25 in 10.0 mi Variable 5.8 mph - N/A   Clear
6:54 AM 26.1 °F 16.8 °F 15.1 °F 63% 30.27 in 10.0 mi West 9.2 mph - N/A   Clear
7:54 AM 28.0 °F 17.5 °F 15.1 °F 58% 30.30 in 10.0 mi WNW 12.7 mph - N/A   Clear
8:54 AM 32.0 °F 22.5 °F 12.9 °F 45% 30.30 in 10.0 mi NW 12.7 mph - N/A   Clear
9:54 AM 35.1 °F 26.4 °F 10.9 °F 37% 30.29 in 10.0 mi WNW 12.7 mph - N/A   Clear
10:54 AM 37.9 °F 30.9 °F 10.9 °F 33% 30.27 in 10.0 mi WNW 10.4 mph - N/A   Clear
11:54 AM 41.0 °F 34.3 °F 9.0 °F 27% 30.25 in 10.0 mi West 11.5 mph - N/A   Clear
12:54 PM 44.1 °F 37.1 °F 9.0 °F 24% 30.23 in 10.0 mi West 15.0 mph 19.6 mph N/A   Clear
1:54 PM 46.0 °F 39.9 °F 10.0 °F 23% 30.20 in 10.0 mi WSW 13.8 mph - N/A   Clear
2:54 PM 48.9 °F - 12.0 °F 23% 30.17 in 10.0 mi WSW 15.0 mph - N/A   Clear
3:54 PM 48.9 °F - 14.0 °F 25% 30.14 in 10.0 mi SW 11.5 mph 23.0 mph N/A   Clear
4:54 PM 50.0 °F - 12.0 °F 22% 30.11 in 10.0 mi SSW 17.3 mph 20.7 mph N/A   Clear
5:54 PM 50.0 °F - 12.9 °F 23% 30.10 in 10.0 mi SW 16.1 mph - N/A   Clear
6:54 PM 46.9 °F - 15.1 °F 28% 30.09 in 10.0 mi SW 11.5 mph - N/A   Clear
7:54 PM 44.1 °F 37.4 °F 16.0 °F 32% 30.09 in 10.0 mi SSW 13.8 mph - N/A   Clear
8:54 PM 41.0 °F 33.5 °F 19.0 °F 41% 30.11 in 10.0 mi SW 13.8 mph 23.0 mph N/A   Clear
9:54 PM 39.0 °F 30.6 °F 19.9 °F 46% 30.09 in 10.0 mi SW 15.0 mph - N/A   Clear
10:54 PM 37.0 °F 29.8 °F 21.9 °F 54% 30.06 in 10.0 mi SW 10.4 mph - N/A   Clear
11:54 PM 35.1 °F 26.4 °F 24.1 °F 64% 30.06 in 10.0 mi SW 12.7 mph - N/A   Clear